Orange, MA

5:27 AM EST on December 14, 2019 (GMT -0500)
Orange Municipal

Weather History for KORE - October, 2019

Change the Weather History Date:

Friday, October 25, 2019

  Actual Average Record
Temperature  
Mean Temperature 49 °F -  
Max Temperature 59 °F 53 °F 73 °F (2001)
Min Temperature 39 °F 31 °F 21 °F (2002)
Degree Days  
Heating Degree Days 16    
Moisture  
Dew Point 42 °F    
Average Humidity 80    
Maximum Humidity 93    
Minimum Humidity 53    
Precipitation  
Precipitation 0.02 in - - ()
Sea Level Pressure  
Sea Level Pressure 30.26 in    
Wind  
Wind Speed 0 mph ()    
Max Wind Speed 5 mph    
Max Gust Speed -    
Visibility 10.0 miles    
Events Rain    
Averages and records for this station are not official NWS values.
T = Trace of Precipitation, MM = Missing Value Source: Averaged Metar Reports

Daily Weather History Graph

Daily Weather History Graph

Search for Another Location

Airport or City:

Astronomy

Oct. 25, 2019 Rise Set
Actual Time 7:13 AM EDT 5:51 PM EDT
Civil Twilight 6:45 AM EDT 6:20 PM EDT
Nautical Twilight 6:12 AM EDT 6:53 PM EDT
Astronomical Twilight 5:39 AM EDT 7:26 PM EDT
Moon 3:46 AM EDT (10/25) 4:57 PM EDT (10/25)
Length of Visible Light 11h 35m
Length of Day
10h 38m
Waning Crescent, 9% of the Moon is Illuminated
Oct 25
Waning Crescent
Oct 27
New
Nov 4
First Quarter
Nov 12
Full
Nov 19
Last Quarter

Hourly Weather History & Observations

Time (EDT) Temp. Dew Point Humidity Pressure Visibility Wind Dir Wind Speed Gust Speed Precip Events Conditions
12:52 AM 43.0 °F 39.0 °F 86% 30.29 in 10.0 mi Calm Calm - N/A   Clear
1:52 AM 43.0 °F 39.0 °F 86% 30.30 in 10.0 mi Calm Calm - N/A   Clear
2:52 AM 43.0 °F 39.0 °F 86% 30.30 in 10.0 mi Calm Calm - N/A   Clear
3:52 AM 41.0 °F 37.9 °F 89% 30.30 in 10.0 mi Calm Calm - N/A   Clear
4:52 AM 39.9 °F 37.0 °F 89% 30.32 in 10.0 mi Calm Calm - N/A   Clear
5:52 AM 39.0 °F 37.0 °F 93% 30.32 in 10.0 mi Calm Calm - N/A   Mostly Cloudy
6:52 AM 39.0 °F 37.0 °F 93% 30.32 in 10.0 mi Calm Calm - N/A   Scattered Clouds
7:52 AM 39.9 °F 37.0 °F 89% 30.34 in 10.0 mi Calm Calm - N/A   Overcast
8:52 AM 43.0 °F 39.9 °F 89% 30.34 in 10.0 mi Calm Calm - N/A   Clear
9:52 AM 46.0 °F 41.0 °F 83% 30.34 in 10.0 mi Calm Calm - N/A   Scattered Clouds
10:52 AM 48.9 °F 42.1 °F 77% 30.32 in 10.0 mi Calm Calm - N/A   Clear
11:52 AM 54.0 °F 43.0 °F 66% 30.31 in 10.0 mi Calm Calm - N/A   Clear
12:52 PM 57.0 °F 42.1 °F 57% 30.29 in 10.0 mi Calm Calm - N/A   Clear
1:52 PM 57.9 °F 42.1 °F 56% 30.26 in 10.0 mi Calm Calm - N/A   Clear
2:52 PM 59.0 °F 42.1 °F 53% 30.24 in 10.0 mi Calm Calm - N/A   Clear
3:52 PM 57.9 °F 42.1 °F 56% 30.21 in 10.0 mi Calm Calm - N/A   Clear
4:52 PM 57.0 °F 46.0 °F 67% 30.20 in 10.0 mi Calm Calm - N/A   Clear
5:52 PM 53.1 °F 46.9 °F 80% 30.19 in 10.0 mi SSW 4.6 mph - N/A   Overcast
6:52 PM 53.1 °F 46.9 °F 80% 30.19 in 10.0 mi Calm Calm - N/A   Overcast
7:52 PM 52.0 °F 46.9 °F 83% 30.20 in 10.0 mi Calm Calm - N/A   Overcast
8:52 PM 50.0 °F 46.0 °F 86% 30.19 in 10.0 mi Calm Calm - N/A   Overcast
9:52 PM 50.0 °F 46.9 °F 89% 30.20 in 10.0 mi Calm Calm - N/A   Overcast
10:52 PM 50.0 °F 46.0 °F 86% 30.20 in 10.0 mi NW 4.6 mph - 0.00 in Rain Light Rain
11:52 PM 48.9 °F 46.0 °F 90% 30.18 in 10.0 mi Calm Calm - 0.02 in Rain Light Rain